Location: Kawakawa
(35.3830°S, 174.0670°E)
Time: 12:57:01
(UTC+13:00)

Envisat - Visible Passes

Search period start: 23 November 2019 00:00
Search period end: 03 December 2019 00:00
Orbit: 764 x 766 km, 98.1° (Epoch: 22 November)

Date Brightness Start Highest point End Pass type
(mag) Time Alt. Az. Time Alt. Az. Time Alt. Az.
23 Nov 4.4 20:44:55 10° S 20:49:48 45° WSW 20:54:38 10° NW visible
24 Nov 6.4 21:49:55 10° SW 21:51:25 11° WSW 21:52:55 10° W visible
25 Nov 5.5 21:10:56 10° SSW 21:15:06 25° WSW 21:19:14 10° WNW visible
27 Nov 6.1 21:37:35 10° SSW 21:40:18 15° WSW 21:43:00 10° W visible
28 Nov 5.1 20:59:23 10° S 21:03:55 32° WSW 21:08:24 10° NW visible
30 Nov 5.9 21:25:42 10° SSW 21:29:10 18° WSW 21:32:36 10° WNW visible
01 Dec 4.6 20:47:55 10° S 20:52:43 41° WSW 20:57:28 10° NW visible
02 Dec 6.6 21:53:58 10° WSW 21:54:18 10° WSW 21:54:38 10° WSW visible
